| time (UTC) | temp C | wind direction | speed KPH | gust KPH | rain 1hr cm | rain 24hr cm | rain mn cm | humidity % | barometer mb |
| 20260506124526 | 5 | 19 | 0.0 | 0.0 | 0.00 | 0.00 | 0.00 | 93 | 1019.5 |
| 20260506123024 | 4 | 315 | 0.0 | 0.0 | 0.00 | 0.00 | 0.00 | 92 | 1019.3 |
| 20260506121521 | 5 | 296 | 0.0 | 0.0 | 0.00 | 0.00 | 0.00 | 91 | 1019.2 |
| 20260506120027 | 5 | 27 | 0.0 | 0.0 | 0.00 | 0.00 | 0.00 | 91 | 1019.1 |
| 20260506114519 | 5 | 75 | 0.0 | 1.6 | 0.00 | 0.00 | 0.00 | 92 | 1019.0 |
| 20260506113018 | 5 | 303 | 0.0 | 0.0 | 0.00 | 0.00 | 0.00 | 90 | 1018.7 |
| 20260506111513 | 5 | 53 | 0.0 | 0.0 | 0.00 | 0.00 | 0.00 | 91 | 1018.6 |
| 20260506110013 | 6 | 53 | 0.0 | 3.2 | 0.00 | 0.00 | 0.00 | 91 | 1018.6 |
| 20260506104509 | 6 | 317 | 1.6 | 4.8 | 0.00 | 0.00 | 0.00 | 88 | 1018.5 |
| 20260506103007 | 6 | 24 | 1.6 | 3.2 | 0.00 | 0.00 | 0.00 | 90 | 1018.5 |
| 20260506101504 | 6 | 49 | 0.0 | 0.0 | 0.00 | 0.00 | 0.00 | 89 | 1018.2 |
| 20260506100002 | 7 | 322 | 0.0 | 3.2 | 0.00 | 0.00 | 0.00 | 90 | 1018.2 |
| 20260506094600 | 7 | 287 | 0.0 | 0.0 | 0.00 | 0.00 | 0.00 | 88 | 1018.2 |
| 20260506093112 | 7 | 320 | 0.0 | 1.6 | 0.00 | 0.00 | 0.00 | 88 | 1018.0 |
| 20260506091556 | 7 | 360 | 0.0 | 1.6 | 0.00 | 0.00 | 0.00 | 88 | 1017.7 |
| 20260506090101 | 7 | 66 | 0.0 | 3.2 | 0.00 | 0.00 | 0.00 | 87 | 1017.8 |
| 20260506084550 | 7 | 284 | 0.0 | 0.0 | 0.00 | 0.00 | 0.00 | 86 | 1017.7 |
| 20260506083047 | 8 | 315 | 0.0 | 0.0 | 0.00 | 0.00 | 0.00 | 85 | 1017.6 |
| 20260506081546 | 8 | 189 | 0.0 | 0.0 | 0.00 | 0.00 | 0.00 | 84 | 1017.6 |
| 20260506073040 | 10 | 348 | 1.6 | 4.8 | 0.00 | 0.00 | 0.00 | 82 | 1017.1 |
| 20260506071536 | 10 | 355 | 1.6 | 4.8 | 0.00 | 0.00 | 0.00 | 81 | 1016.8 |
| 20260506061530 | 11 | 9 | 0.0 | 3.2 | 0.00 | 0.00 | 0.00 | 76 | 1016.3 |
| 20260506044527 | 15 | 130 | 0.0 | 0.0 | 0.00 | 0.00 | 0.00 | 60 | 1015.2 |
| 20260506043024 | 15 | 44 | 0.0 | 1.6 | 0.00 | 0.00 | 0.00 | 65 | 1014.8 |
| 20260506041523 | 15 | 348 | 1.6 | 4.8 | 0.00 | 0.00 | 0.00 | 62 | 1014.6 |
| 20260506040023 | 16 | 351 | 3.2 | 6.4 | 0.00 | 0.00 | 0.00 | 60 | 1014.4 |
| 20260506034524 | 17 | 346 | 3.2 | 6.4 | 0.00 | 0.00 | 0.00 | 59 | 1014.2 |
| 20260506033022 | 18 | 351 | 3.2 | 6.4 | 0.00 | 0.00 | 0.00 | 55 | 1013.9 |
| 20260506031521 | 18 | 347 | 3.2 | 8.0 | 0.00 | 0.00 | 0.00 | 55 | 1013.7 |
| 20260506030020 | 20 | 355 | 4.8 | 9.7 | 0.00 | 0.00 | 0.00 | 51 | 1013.5 |
| 20260506024520 | 21 | 342 | 4.8 | 12.9 | 0.00 | 0.00 | 0.00 | 46 | 1013.2 |
| 20260506023021 | 22 | 340 | 4.8 | 14.5 | 0.00 | 0.00 | 0.00 | 43 | 1013.1 |
| 20260506021518 | 22 | 321 | 3.2 | 8.0 | 0.00 | 0.00 | 0.00 | 42 | 1012.9 |
| 20260506020030 | 23 | 322 | 6.4 | 16.1 | 0.00 | 0.00 | 0.00 | 40 | 1012.8 |
| 20260506014516 | 23 | 320 | 6.4 | 16.1 | 0.00 | 0.00 | 0.00 | 39 | 1012.8 |
| 20260506013019 | 24 | 322 | 4.8 | 14.5 | 0.00 | 0.00 | 0.00 | 39 | 1012.7 |
| 20260506011515 | 25 | 332 | 6.4 | 19.3 | 0.00 | 0.00 | 0.00 | 37 | 1012.6 |
| 20260506010017 | 25 | 334 | 8.0 | 16.1 | 0.00 | 0.00 | 0.00 | 38 | 1012.6 |
| 20260506004521 | 26 | 319 | 6.4 | 14.5 | 0.00 | 0.00 | 0.00 | 39 | 1012.5 |
| 20260506003016 | 26 | 257 | 0.0 | 3.2 | 0.00 | 0.00 | 0.00 | 44 | 1012.3 |
| 20260506001510 | 26 | 5 | 1.6 | 6.4 | 0.00 | 0.00 | 0.00 | 43 | 1012.3 |
| 20260506000008 | 26 | 102 | 3.2 | 11.3 | 0.00 | 0.00 | 0.00 | 44 | 1012.3 |
| 20260505234507 | 25 | 334 | 0.0 | 6.4 | 0.00 | 0.00 | 0.00 | 46 | 1012.3 |
| 20260505233005 | 25 | 203 | 6.4 | 9.7 | 0.00 | 0.00 | 0.00 | 47 | 1012.4 |
| 20260505231507 | 25 | 205 | 4.8 | 12.9 | 0.00 | 0.00 | 0.00 | 50 | 1012.5 |
| 20260505230010 | 25 | 155 | 1.6 | 8.0 | 0.00 | 0.00 | 0.00 | 47 | 1012.6 |
| 20260505224559 | 25 | 198 | 4.8 | 12.9 | 0.00 | 0.00 | 0.00 | 47 | 1012.9 |
| 20260505223104 | 24 | 306 | 3.2 | 11.3 | 0.00 | 0.00 | 0.00 | 48 | 1013.0 |
| 20260505221601 | 24 | 208 | 1.6 | 11.3 | 0.00 | 0.00 | 0.00 | 50 | 1013.0 |
| 20260505220106 | 24 | 248 | 6.4 | 14.5 | 0.00 | 0.00 | 0.00 | 51 | 1013.3 |
| 20260505214605 | 23 | 207 | 3.2 | 12.9 | 0.00 | 0.00 | 0.00 | 50 | 1013.4 |
| 20260505213053 | 23 | 194 | 4.8 | 11.3 | 0.00 | 0.00 | 0.00 | 50 | 1013.7 |
| 20260505211626 | 23 | 301 | 0.0 | 6.4 | 0.00 | 0.00 | 0.00 | 51 | 1013.8 |
| 20260505210050 | 22 | 204 | 3.2 | 9.7 | 0.00 | 0.00 | 0.00 | 51 | 1014.0 |
| 20260505204558 | 21 | 120 | 1.6 | 4.8 | 0.00 | 0.00 | 0.00 | 56 | 1014.2 |
| 20260505203046 | 21 | 217 | 4.8 | 12.9 | 0.00 | 0.00 | 0.00 | 54 | 1014.5 |
| 20260505201544 | 20 | 269 | 1.6 | 14.5 | 0.00 | 0.00 | 0.00 | 56 | 1014.7 |
| 20260505200042 | 20 | 192 | 1.6 | 14.5 | 0.00 | 0.00 | 0.00 | 56 | 1014.8 |
| 20260505194541 | 20 | 135 | 1.6 | 9.7 | 0.00 | 0.00 | 0.00 | 57 | 1014.9 |
| 20260505193040 | 20 | 70 | 0.0 | 8.0 | 0.00 | 0.00 | 0.00 | 57 | 1015.0 |
| 20260505191539 | 19 | 95 | 1.6 | 9.7 | 0.00 | 0.00 | 0.00 | 59 | 1015.1 |
| 20260505190037 | 18 | 188 | 3.2 | 14.5 | 0.00 | 0.00 | 0.00 | 58 | 1015.2 |
| 20260505184541 | 18 | 350 | 3.2 | 11.3 | 0.00 | 0.00 | 0.00 | 64 | 1015.3 |
| 20260505183036 | 18 | 209 | 6.4 | 14.5 | 0.00 | 0.00 | 0.00 | 60 | 1015.4 |
| 20260505181542 | 18 | 182 | 4.8 | 12.9 | 0.00 | 0.00 | 0.00 | 63 | 1015.4 |
| 20260505180030 | 17 | 183 | 3.2 | 9.7 | 0.00 | 0.00 | 0.00 | 66 | 1015.5 |
| 20260505174536 | 17 | 170 | 4.8 | 11.3 | 0.00 | 0.00 | 0.00 | 64 | 1015.6 |
| 20260505173027 | 16 | 148 | 3.2 | 9.7 | 0.00 | 0.00 | 0.00 | 69 | 1015.6 |
| 20260505171533 | 16 | 208 | 4.8 | 9.7 | 0.00 | 0.00 | 0.00 | 66 | 1015.7 |
| 20260505170024 | 16 | 194 | 3.2 | 8.0 | 0.00 | 0.00 | 0.00 | 68 | 1015.6 |
| 20260505164519 | 16 | 256 | 4.8 | 12.9 | 0.00 | 0.00 | 0.00 | 69 | 1015.8 |
| 20260505163017 | 15 | 225 | 4.8 | 9.7 | 0.00 | 0.00 | 0.00 | 75 | 1015.9 |
| 20260505161513 | 14 | 273 | 0.0 | 4.8 | 0.00 | 0.00 | 0.00 | 76 | 1015.9 |
| 20260505153003 | 13 | 116 | 0.0 | 0.0 | 0.00 | 0.00 | 0.00 | 83 | 1016.0 |
| 20260505151603 | 12 | 265 | 0.0 | 0.0 | 0.00 | 0.00 | 0.00 | 86 | 1015.8 |